Zurück zum Katalog

OPS 4682 DEB

AktivPO
NORAD 18479·DEBRIS·🇺🇸 United States

Gestartet Apr 3, 1965 von Vandenberg Space Force Base

Loading…

Nächste Überflüge (nächste 24 Stunden)

TLE

AktuellSource: Space-Track

Epoche: Sep 14, 2026, 06:43 UTC

1 18479U 65027AC  26257.27994000 -.00000079  00000-0 -29706-3 0  9997
2 18479  90.2445   7.7874 0030895 185.2534 203.0539 12.97619787959317

Verfolge OPS 4682 DEB in Echtzeit mit AllMySat

Download on the App Store